Location: Grand Moustoir
(47.8355°N, 3.3120°W)
Time: 21:26:59
(UTC+00:00)

Genesis I - Pass Details

Date: 20 January 2020
Orbit: 496 x 528 km, 64.5° (Epoch: 17 February)

Event Time Altitude Azimuth Distance (km) Brightness Sun altitude
Exits shadow 06:51:49 11° 319° (NW) 1,665 5.2 -10.4°
Maximum altitude 06:55:31 77° 234° (SW) 526 3.1 -9.8°
Drops below altitude 10° 06:59:20 10° 148° (SSE) 1,708 6.7 -9.2°
Sets 07:01:28 0° 147° (SSE) 2,583 7.7 -8.9°
